Cecil Field, FL

4:36 PM EDT on June 28, 2017 (GMT -0400)
Cecil

Weather History for KVQQ - March, 2013

Change the Weather History Date:

Thursday, March 21, 2013

  Actual Average (KNIP) Record (KNIP)
Temperature  
Mean Temperature 50 °F -  
Max Temperature 66 °F 72 °F 86 °F (2015)
Min Temperature 35 °F 55 °F 39 °F (2001)
Degree Days  
Heating Degree Days 14    
Moisture  
Dew Point 36 °F    
Average Humidity 76    
Maximum Humidity 100    
Minimum Humidity 21    
Precipitation  
Precipitation 0.00 in - - ()
Sea Level Pressure  
Sea Level Pressure 29.92 in    
Wind  
Wind Speed 2 mph (WNW)    
Max Wind Speed 17 mph    
Max Gust Speed -    
Visibility 9 miles    
Events Fog    
Averages and records for this station are not official NWS values.
T = Trace of Precipitation, MM = Missing Value Source: NWS Daily Summary

Daily Weather History Graph

Daily Weather History Graph

Search for Another Location

Airport or City:

Trip Planner

Search our weather history database for the weather conditions in past years. The results will help you decide how hot, cold, wet, or windy it might be!

Date:

Astronomy

Mar. 21, 2013 Rise Set
Actual Time 7:29 AM EDT 7:39 PM EDT
Civil Twilight 7:05 AM EDT 8:03 PM EDT
Nautical Twilight 6:38 AM EDT 8:31 PM EDT
Astronomical Twilight 6:09 AM EDT 8:59 PM EDT
Moon 2:28 PM EDT (3/21) 3:29 AM EDT (3/21)
Length of Visible Light 12h 57m
Length of Day
12h 09m
Waxing Gibbous, 68% of the Moon is Illuminated
Mar 21
Waxing Gibbous
Mar 27
Full
Apr 3
Last Quarter
Apr 10
New
Apr 18
First Quarter

Hourly Weather History & Observations

Time (EDT) Temp. Windchill Dew Point Humidity Pressure Visibility Wind Dir Wind Speed Gust Speed Precip Events Conditions
12:15 AM 44.6 °F - 44.6 °F 100% 29.91 in 1.2 mi Calm Calm - N/A   Overcast
12:35 AM 44.6 °F - 44.6 °F 100% 29.91 in 0.2 mi Calm Calm - N/A Fog Fog
12:55 AM 46.4 °F - 46.4 °F 100% 29.91 in 0.2 mi Calm Calm - N/A Fog Fog
1:15 AM 46.4 °F - 46.4 °F 100% 29.91 in 0.2 mi Calm Calm - N/A Fog Fog
1:35 AM 46.4 °F - 46.4 °F 100% 29.91 in 10.0 mi Calm Calm - N/A   Clear
2:15 AM 44.6 °F - 44.6 °F 100% 29.90 in 10.0 mi Calm Calm - N/A   Clear
2:35 AM 41.0 °F - 41.0 °F 100% 29.91 in 8.0 mi Calm Calm - N/A   Clear
2:55 AM 42.8 °F 40.1 °F 42.8 °F 100% 29.92 in 8.0 mi West 4.6 mph - N/A   Clear
3:15 AM 42.8 °F - 42.8 °F 100% 29.91 in 10.0 mi Calm Calm - N/A   Clear
3:35 AM 41.0 °F 38.0 °F 41.0 °F 100% 29.91 in 10.0 mi West 4.6 mph - N/A   Clear
3:55 AM 41.0 °F 39.0 °F 41.0 °F 100% 29.91 in 10.0 mi West 3.5 mph - N/A   Clear
4:15 AM 41.0 °F 39.0 °F 41.0 °F 100% 29.91 in 10.0 mi West 3.5 mph - N/A   Clear
4:35 AM 39.2 °F - 37.4 °F 93% 29.90 in 10.0 mi Calm Calm - N/A   Clear
4:55 AM 37.4 °F - 37.4 °F 100% 29.89 in 10.0 mi Calm Calm - N/A   Clear
5:15 AM 37.4 °F - 37.4 °F 100% 29.89 in 8.0 mi Calm Calm - N/A   Clear
5:35 AM 35.6 °F - 35.6 °F 100% 29.90 in 7.0 mi Calm Calm - N/A   Clear
5:55 AM 35.6 °F - 35.6 °F 100% 29.91 in 8.0 mi Calm Calm - N/A   Clear
6:15 AM 37.4 °F - 37.4 °F 100% 29.91 in 10.0 mi Calm Calm - N/A   Clear
6:35 AM 35.6 °F - 35.6 °F 100% 29.92 in 10.0 mi Calm Calm - N/A   Clear
6:50 AM 35.6 °F - 35.6 °F 100% 29.93 in 10.0 mi Calm Calm - N/A   Clear
8:50 AM 42.8 °F 39.3 °F 37.4 °F 81% 29.97 in 10.0 mi West 5.8 mph - N/A   Clear
9:50 AM 48.2 °F - 35.6 °F 62% 29.97 in 10.0 mi NNW 6.9 mph - N/A   Clear
10:50 AM 53.6 °F - 32.0 °F 44% 29.98 in 10.0 mi NNW 11.5 mph - N/A   Clear
11:50 AM 55.4 °F - 30.2 °F 38% 29.97 in 10.0 mi NW 10.4 mph - N/A   Clear
12:50 PM 59.0 °F - 28.4 °F 31% 29.96 in 10.0 mi WNW 13.8 mph - N/A   Clear
1:50 PM 62.6 °F - 26.6 °F 26% 29.94 in 10.0 mi West 17.3 mph - N/A   Clear
2:50 PM 62.6 °F - 26.6 °F 26% 29.91 in 10.0 mi WNW 10.4 mph - N/A   Clear
3:50 PM 66.2 °F - 26.6 °F 23% 29.88 in 10.0 mi West 11.5 mph - N/A   Clear
4:50 PM 66.2 °F - 24.8 °F 21% 29.88 in 10.0 mi WNW 10.4 mph - N/A   Clear
5:50 PM 66.2 °F - 24.8 °F 21% 29.88 in 10.0 mi WNW 10.4 mph - N/A   Clear
6:50 PM 64.4 °F - 24.8 °F 22% 29.89 in 10.0 mi WNW 13.8 mph - N/A   Clear
8:15 PM 53.6 °F - 32.0 °F 44% 29.92 in 10.0 mi West 3.5 mph - N/A   Clear
8:35 PM 48.2 °F - 33.8 °F 58% 29.92 in 10.0 mi Calm Calm - N/A   Clear
8:55 PM 46.4 °F - 32.0 °F 57% 29.92 in 10.0 mi Calm Calm - N/A   Clear
9:15 PM 44.6 °F - 35.6 °F 71% 29.93 in 10.0 mi Calm Calm - N/A   Clear
9:35 PM 41.0 °F - 35.6 °F 81% 29.94 in 10.0 mi Calm Calm - N/A   Clear
9:55 PM 42.8 °F - 35.6 °F 76% 29.94 in 10.0 mi Calm Calm - N/A   Clear
10:15 PM 41.0 °F - 32.0 °F 70% 29.94 in 10.0 mi Calm Calm - N/A   Clear
10:35 PM 39.2 °F - 35.6 °F 87% 29.95 in 10.0 mi Calm Calm - N/A   Clear
10:55 PM 39.2 °F - 33.8 °F 81% 29.95 in 10.0 mi Calm Calm - N/A   Clear
11:15 PM 39.2 °F - 33.8 °F 81% 29.96 in 10.0 mi Calm Calm - N/A   Clear
11:35 PM 37.4 °F - 33.8 °F 87% 29.96 in 10.0 mi Calm Calm - N/A   Clear
11:55 PM 37.4 °F - 33.8 °F 87% 29.97 in 10.0 mi Calm Calm - N/A   Clear